Notices

What's New in latest Release from April 7th, 2021:

- Updated Glossary, including Speed of Maximum Gust, and Total Hourly Precipitation

- Updated national and regional climate services offices contacts and prices information

- Addition of station inventory lists for 1981-2010, 1971-2000, and 1961-1990 Normals.

If you haven't already, please take our survey and provide feedback about our website: https://eccc.sondage-survey.ca/f/LanguageSelection.aspx?s=442ca660-fcf1-47c0-95a9-59707d6fd709

Hourly Data Report for November 05, 2019

EUREKA CLIMATE
NUNAVUT
Current Station Operator: ECCC - MSC

79°59'21.000" N
85°56'02.000" W
10.00 m
2401199
71613
NEK

Download Data

Hourly Data (November 2019)
Hourly Data Report for November 5, 2019
TIME
LST
Temp Definition
°C
Dew Point Definition
°C
Rel Hum Definition
%
Precip. Amount Definition
mm

Wind Dir Definition
10's deg

Wind Spd Definition
km/h
Visibility Definition
km
Stn Press Definition
kPa
Hmdx Definition


Wind Chill Definition


Weather Definition


00:00 -24.0 -26.3 81 0.0 12 7   101.49   -30 LegendNANA
01:00 -24.7 -27.0 81 0.0 8 6   101.47   -30 LegendNANA
02:00 -25.2 -27.6 80 0.0 4 5   101.47   -30 LegendNANA
03:00 -25.6 -28.0 80 0.0 3 4   101.46   -30 LegendNANA
04:00 -24.9 -27.2 81 0.0 11 4   101.46   -29 LegendNANA
05:00 -25.8 -28.2 80 0.0 7 2   101.45   -28 LegendNANA
06:00 -26.1 -28.5 80 0.0 3 3   101.42   -29 LegendNANA
07:00 -25.2 -27.3 82 0.0 5 3   101.39   -28 LegendNANA
08:00 -25.7 -28.1 80 0.0 9 9   101.38   -33 LegendNANA
09:00 -25.3 -27.6 81 0.0 12 4   101.39   -29 LegendNANA
10:00 -25.3 -27.7 81 0.0 4 4   101.37   -29 LegendNANA
11:00 -25.4 -27.7 81 0.0 2 5   101.37   -30 LegendNANA
12:00 -24.9 -27.2 81 0.0 4 5   101.38   -30 LegendNANA
13:00 -24.9 -27.3 80 0.0 2 6   101.37   -31 LegendNANA
14:00 -24.0 -26.3 81 0.0 8 2   101.39   -26 LegendNANA
15:00 -23.8 -26.2 81 0.0 6 3   101.42   -27 LegendNANA
16:00 -23.7 -26.1 81 0.0 3 4   101.42   -28 LegendNANA
17:00 -22.7 -24.9 82 0.0 9 4   101.47   -26 LegendNANA
18:00 -22.2 -24.3 82 0.0 8 4   101.48   -26 LegendNANA
19:00 -22.2 -24.4 82 0.0 8 4   101.51   -26 LegendNANA
20:00 -22.1 -24.4 82 0.0 7 6   101.54   -27 LegendNANA
21:00 -22.3 -24.7 81 0.0 5 6   101.57   -28 LegendNANA
22:00 -22.1 -24.4 82 0.0 6 3   101.58   -25 LegendNANA
23:00 -22.8 -25.2 81 0.0 2 8   101.61   -30 LegendNANA

Notes on Data Quality.

Legend

  • E = Estimated
  • M = Missing
  • NA = Not Available*
  • [empty] = Indicates an unobserved value
Date modified: